• In Netherlands
  • List of Countries
  • For 7 days
  • Water Temperature
  • Satellite Maps
  • Weather Map
  • Weather Widgets
  • user-avatar
    Login

    Hourly Weather Ischgl

    Today, 20 June, Wednesday

    Time Temperature Precipitation Wind Pressure Humidity
    00:00 +6°C° 0 mm 1 mps 580 mmHg 94%
    01:00 +6°C° 0 mm 1 mps 580 mmHg 93%
    02:00 +6°C° 0 mm 1 mps 580 mmHg 92%
    03:00 +6°C° 0 mm 1 mps 579 mmHg 91%
    04:00 +5°C° 0 mm 1 mps 579 mmHg 91%
    05:00 +7°C° 0 mm 1 mps 580 mmHg 84%
    06:00 +9°C° 0 mm 1 mps 581 mmHg 78%
    07:00 +12°C° 0 mm 1 mps 582 mmHg 72%
    08:00 +13°C° 0 mm 1 mps 583 mmHg 65%
    09:00 +15°C° 0 mm 1 mps 583 mmHg 59%
    10:00 +16°C° 0 mm 1 mps 584 mmHg 52%
    11:00 +18°C° 0.1 mm 1 mps 584 mmHg 50%
    12:00 +18°C° 0.1 mm 1 mps 584 mmHg 49%
    13:00 +18°C° 0.1 mm 2 mps 584 mmHg 47%
    14:00 +17°C° 0.5 mm 2 mps 584 mmHg 50%
    15:00 +17°C° 0.5 mm 2 mps 584 mmHg 53%
    16:00 +17°C° 0.5 mm 2 mps 583 mmHg 57%
    17:00 +15°C° 1.2 mm 2 mps 583 mmHg 65%
    18:00 +14°C° 1.2 mm 1 mps 582 mmHg 73%
    19:00 +13°C° 1.2 mm 1 mps 581 mmHg 81%
    20:00 +12°C° 0.9 mm 1 mps 581 mmHg 85%
    21:00 +10°C° 0.9 mm 1 mps 580 mmHg 90%
    22:00 +8°C° 0.9 mm 0 mps 579 mmHg 94%
    23:00 +8°C° 0.2 mm 1 mps 579 mmHg 93%

    Tomorrow, 21 June, Thursday

    Time Temperature Precipitation Wind Pressure Humidity
    00:00 +8°C° 0.2 mm 1 mps 579 mmHg 93%
    01:00 +8°C° 0.2 mm 1 mps 579 mmHg 93%
    02:00 +8°C° 0.1 mm 1 mps 579 mmHg 92%
    03:00 +7°C° 0.1 mm 1 mps 578 mmHg 92%
    04:00 +7°C° 0.1 mm 1 mps 578 mmHg 92%
    05:00 +8°C° 0 mm 1 mps 578 mmHg 88%
    06:00 +10°C° 0 mm 1 mps 579 mmHg 84%
    07:00 +12°C° 0 mm 1 mps 580 mmHg 80%
    08:00 +13°C° 0.1 mm 1 mps 580 mmHg 72%
    09:00 +15°C° 0.1 mm 1 mps 581 mmHg 64%
    10:00 +16°C° 0.1 mm 1 mps 581 mmHg 56%
    11:00 +16°C° 0.5 mm 1 mps 581 mmHg 56%
    12:00 +17°C° 0.5 mm 2 mps 581 mmHg 56%
    13:00 +17°C° 0.5 mm 2 mps 581 mmHg 56%
    14:00 +16°C° 0.8 mm 2 mps 580 mmHg 61%
    15:00 +16°C° 0.8 mm 3 mps 580 mmHg 66%
    16:00 +14°C° 0.8 mm 3 mps 580 mmHg 71%
    17:00 +13°C° 0.8 mm 3 mps 579 mmHg 76%
    18:00 +11°C° 0.8 mm 3 mps 579 mmHg 81%
    19:00 +10°C° 0.8 mm 3 mps 578 mmHg 87%
    20:00 +9°C° 0.4 mm 3 mps 578 mmHg 89%
    21:00 +8°C° 0.4 mm 3 mps 578 mmHg 92%
    22:00 +7°C° 0.4 mm 3 mps 578 mmHg 95%
    23:00 +5°C° 0.2 mm 3 mps 578 mmHg 95%

    Day after tomorrow, 22 June, Friday

    Time Temperature Precipitation Wind Pressure Humidity
    00:00 +5°C° 0.2 mm 3 mps 577 mmHg 96%
    01:00 +4°C° 0.2 mm 3 mps 577 mmHg 96%
    02:00 +4°C° 0.1 mm 3 mps 577 mmHg 96%
    03:00 +4°C° 0.1 mm 2 mps 576 mmHg 95%
    04:00 +4°C° 0.1 mm 2 mps 576 mmHg 95%
    05:00 +4°C° 0 mm 2 mps 576 mmHg 93%
    06:00 +4°C° 0 mm 2 mps 577 mmHg 91%
    07:00 +4°C° 0 mm 2 mps 577 mmHg 89%
    08:00 +4°C° 0 mm 3 mps 577 mmHg 80%
    09:00 +5°C° 0 mm 3 mps 578 mmHg 72%
    10:00 +7°C° 0 mm 3 mps 578 mmHg 63%
    11:00 +8°C° 0 mm 3 mps 579 mmHg 55%
    12:00 +9°C° 0 mm 3 mps 579 mmHg 46%
    13:00 +11°C° 0 mm 3 mps 580 mmHg 38%
    14:00 +10°C° 0 mm 3 mps 580 mmHg 37%
    15:00 +10°C° 0 mm 3 mps 580 mmHg 37%
    16:00 +10°C° 0 mm 4 mps 579 mmHg 37%
    17:00 +9°C° 0 mm 3 mps 579 mmHg 44%
    18:00 +7°C° 0 mm 3 mps 579 mmHg 50%
    19:00 +5°C° 0 mm 3 mps 578 mmHg 57%
    20:00 +3°C° 0 mm 3 mps 578 mmHg 67%
    21:00 +3°C° 0 mm 2 mps 577 mmHg 77%
    22:00 +1°C° 0 mm 2 mps 577 mmHg 87%
    23:00 +2°C° 0 mm 1 mps 577 mmHg 88%

    23 June, Saturday

    Time Temperature Precipitation Wind Pressure Humidity
    00:00 +1°C° 0 mm 1 mps 577 mmHg 89%
    01:00 +1°C° 0 mm 1 mps 577 mmHg 90%
    02:00 +1°C° 0 mm 1 mps 576 mmHg 90%
    03:00 0°C° 0 mm 1 mps 576 mmHg 90%
    04:00 0°C° 0 mm 1 mps 576 mmHg 90%
    05:00 +2°C° 0 mm 1 mps 577 mmHg 81%
    06:00 +3°C° 0 mm 1 mps 577 mmHg 73%
    07:00 +5°C° 0 mm 1 mps 578 mmHg 64%
    08:00 +6°C° 0 mm 1 mps 579 mmHg 57%
    09:00 +8°C° 0 mm 1 mps 579 mmHg 50%
    10:00 +8°C° 0 mm 2 mps 580 mmHg 43%
    11:00 +9°C° 0 mm 2 mps 580 mmHg 42%
    12:00 +10°C° 0 mm 2 mps 581 mmHg 40%
    13:00 +11°C° 0 mm 3 mps 581 mmHg 38%
    14:00 +10°C° 0 mm 3 mps 580 mmHg 41%
    15:00 +10°C° 0 mm 3 mps 580 mmHg 44%
    16:00 +10°C° 0 mm 3 mps 580 mmHg 47%
    17:00 +8°C° 0 mm 3 mps 579 mmHg 55%
    18:00 +7°C° 0 mm 3 mps 579 mmHg 63%
    19:00 +5°C° 0 mm 3 mps 578 mmHg 71%
    20:00 +4°C° 0 mm 2 mps 578 mmHg 78%
    21:00 +3°C° 0 mm 2 mps 578 mmHg 85%
    22:00 +3°C° 0 mm 1 mps 577 mmHg 92%
    23:00 +2°C° 0 mm 1 mps 577 mmHg 93%

    24 June, Sunday

    Time Temperature Precipitation Wind Pressure Humidity
    00:00 +2°C° 0 mm 1 mps 577 mmHg 93%
    01:00 +1°C° 0 mm 1 mps 577 mmHg 94%
    02:00 +1°C° 0 mm 1 mps 576 mmHg 93%
    03:00 0°C° 0 mm 1 mps 576 mmHg 93%
    04:00 0°C° 0 mm 1 mps 576 mmHg 92%
    05:00 +2°C° 0 mm 1 mps 577 mmHg 84%
    06:00 +3°C° 0 mm 1 mps 577 mmHg 76%
    07:00 +5°C° 0 mm 1 mps 578 mmHg 68%
    08:00 +6°C° 0 mm 1 mps 579 mmHg 61%
    09:00 +8°C° 0 mm 1 mps 580 mmHg 53%
    10:00 +8°C° 0 mm 2 mps 580 mmHg 46%
    11:00 +9°C° 0 mm 2 mps 580 mmHg 46%
    12:00 +10°C° 0 mm 2 mps 581 mmHg 46%
    13:00 +10°C° 0 mm 3 mps 581 mmHg 46%
    14:00 +10°C° 0 mm 3 mps 581 mmHg 49%
    15:00 +10°C° 0 mm 3 mps 580 mmHg 52%
    16:00 +9°C° 0 mm 3 mps 580 mmHg 55%
    17:00 +8°C° 0.1 mm 3 mps 580 mmHg 61%
    18:00 +7°C° 0.1 mm 3 mps 579 mmHg 67%
    19:00 +6°C° 0.1 mm 2 mps 579 mmHg 73%
    20:00 +5°C° 0 mm 2 mps 579 mmHg 80%
    21:00 +4°C° 0 mm 1 mps 578 mmHg 87%
    22:00 +3°C° 0 mm 1 mps 578 mmHg 94%
    23:00 +2°C° 0 mm 1 mps 577 mmHg 94%

    25 June, Monday

    Time Temperature Precipitation Wind Pressure Humidity
    00:00 +2°C° 0 mm 1 mps 577 mmHg 94%
    01:00 +1°C° 0 mm 1 mps 577 mmHg 94%
    02:00 +1°C° 0 mm 1 mps 577 mmHg 93%
    03:00 0°C° 0 mm 0 mps 576 mmHg 92%
    04:00 -1°C° 0 mm 0 mps 576 mmHg 91%
    05:00 +2°C° 0 mm 1 mps 577 mmHg 81%
    06:00 +4°C° 0 mm 1 mps 578 mmHg 71%
    07:00 +6°C° 0 mm 1 mps 579 mmHg 61%
    08:00 +8°C° 0 mm 1 mps 580 mmHg 54%
    09:00 +9°C° 0 mm 2 mps 581 mmHg 47%
    10:00 +10°C° 0 mm 2 mps 582 mmHg 40%
    11:00 +12°C° 0 mm 2 mps 582 mmHg 40%
    12:00 +12°C° 0 mm 3 mps 582 mmHg 39%
    13:00 +13°C° 0 mm 3 mps 582 mmHg 39%
    14:00 +13°C° 0 mm 3 mps 582 mmHg 42%
    15:00 +13°C° 0 mm 3 mps 582 mmHg 46%
    16:00 +12°C° 0 mm 3 mps 582 mmHg 49%
    17:00 +11°C° 0 mm 3 mps 581 mmHg 56%
    18:00 +10°C° 0 mm 3 mps 581 mmHg 64%
    19:00 +9°C° 0 mm 2 mps 581 mmHg 71%
    20:00 +7°C° 0 mm 2 mps 580 mmHg 79%
    21:00 +5°C° 0 mm 2 mps 579 mmHg 87%
    22:00 +5°C° 0 mm 1 mps 579 mmHg 95%
    23:00 +4°C° 0 mm 1 mps 579 mmHg 95%
    Show more